EW1145 Weather Reports


time (UTC)temp
C
wind
direction
speed
KPH
gust
KPH
rain 1hr
cm
rain 24hr
cm
rain mn
cm
humidity
%
barometer
mb
20260503224540 32 84 0.0 4.8 0.00 0.00 0.00 20 1007.6
20260503223036 31 190 0.0 4.8 0.00 0.00 0.00 25 1007.9
20260503221534 31 83 0.0 8.0 0.00 0.00 0.00 26 1008.1
20260503220032 31 109 0.0 4.8 0.00 0.00 0.00 25 1008.4
20260503214538 31 75 0.0 8.0 0.00 0.00 0.00 25 1008.5
20260503213026 31 21 0.0 4.8 0.00 0.00 0.00 27 1008.7
20260503211522 30 28 0.0 6.4 0.00 0.00 0.00 28 1008.8
20260503210021 30 115 0.0 8.0 0.00 0.00 0.00 29 1009.0
20260503204518 30 32 1.6 6.4 0.00 0.00 0.00 30 1009.1
20260503203017 30 9 0.0 8.0 0.00 0.00 0.00 29 1009.4
20260503201513 29 111 0.0 9.7 0.00 0.00 0.00 29 1009.6
20260503200013 29 86 0.0 11.3 0.00 0.00 0.00 32 1009.8
20260503194509 28 80 0.0 9.7 0.00 0.00 0.00 34 1010.0
20260503193005 28 10 1.6 8.0 0.00 0.00 0.00 36 1010.1
20260503191501 27 105 0.0 6.4 0.00 0.00 0.00 40 1010.2
20260503190059 27 260 0.0 6.4 0.00 0.00 0.00 42 1010.3
20260503184600 26 163 0.0 1.6 0.00 0.00 0.00 46 1010.4
20260503183052 26 218 1.6 4.8 0.00 0.00 0.00 52 1010.6
20260503181552 26 81 0.0 0.0 0.00 0.00 0.00 54 1010.8
20260503180056 25 81 0.0 0.0 0.00 0.00 0.00 55 1010.9
20260503174551 25 89 0.0 0.0 0.00 0.00 0.00 57 1010.9
20260503173040 23 89 0.0 0.0 0.00 0.00 0.00 61 1011.0
20260503171539 23 79 0.0 0.0 0.00 0.00 0.00 62 1011.1
20260503081541 13 194 0.0 0.0 0.00 0.00 0.00 90 1011.9
20260503071529 14 194 0.0 0.0 0.00 0.00 0.00 87 1012.1
20260503054529 16 336 0.0 0.0 0.00 0.00 0.00 81 1011.9
20260503053029 16 336 0.0 0.0 0.00 0.00 0.00 80 1012.0
20260503051521 16 336 0.0 0.0 0.00 0.00 0.00 82 1012.0
20260503050021 16 336 0.0 0.0 0.00 0.00 0.00 82 1012.2
20260503044527 16 336 0.0 0.0 0.00 0.00 0.00 81 1012.4
20260503043021 16 336 0.0 0.0 0.00 0.00 0.00 80 1012.3
20260503041520 16 336 0.0 0.0 0.00 0.00 0.00 79 1012.3
20260503040019 17 337 0.0 0.0 0.00 0.00 0.00 77 1012.1
20260503034519 17 337 0.0 6.4 0.00 0.00 0.00 76 1011.9
20260503033018 17 195 0.0 0.0 0.00 0.00 0.00 76 1011.8
20260503031518 17 195 0.0 3.2 0.00 0.00 0.00 75 1011.9
20260503030017 18 192 0.0 4.8 0.00 0.00 0.00 74 1012.0
20260503024518 18 221 0.0 9.7 0.00 0.00 0.00 73 1011.9
20260503023016 18 210 0.0 6.4 0.00 0.00 0.00 73 1011.7
20260503021522 20 201 0.0 9.7 0.00 0.00 0.00 70 1011.2
20260503020016 20 14 0.0 0.0 0.00 0.00 0.00 67 1010.9
20260503014515 21 14 0.0 3.2 0.00 0.00 0.00 65 1010.8
20260503013029 22 14 0.0 0.0 0.00 0.00 0.00 62 1010.8
20260503011514 23 14 0.0 1.6 0.00 0.00 0.00 58 1010.7
20260503010014 23 290 0.0 6.4 0.00 0.00 0.00 53 1010.6
20260503004512 23 281 0.0 0.0 0.00 0.00 0.00 56 1010.6
20260503003011 23 281 0.0 0.0 0.00 0.00 0.00 54 1010.7
20260503001509 22 275 3.2 9.7 0.00 0.00 0.00 52 1010.7
20260503000006 22 236 0.0 0.0 0.00 0.00 0.00 58 1010.8
20260502234504 22 236 0.0 3.2 0.00 0.00 0.00 57 1011.0
20260502233100 22 80 0.0 0.0 0.00 0.00 0.00 62 1011.2
20260502231606 22 80 0.0 0.0 0.00 0.00 0.00 58 1011.4
20260502230057 21 82 0.0 0.0 0.00 0.00 0.00 59 1011.7